GFSFLT2_prec_cthk_147.txt.gz
RH
87 85 83 79 78 76 74 73 66 63 65 67 66 63 66 70 65 66 71 73 64 70 77 76 70 74 67
89 88 89 92 84 80 73 69 68 67 66 62 55 50 31 33 39 46 72 72 59 54 51 57 51 45 46
67 73 79 78 75 73 70 69 66 65 68 63 50 48 45 34 34 38 47 50 43 41 43 40 43 40 42
70 69 67 65 59 57 49 49 49 44 45 45 45 42 48 44 36 29 25 23 22 22 25 25 26 29 29
65 60 56 52 52 51 53 49 43 41 40 46 39 31 25 22 22 23 23 24 24 25 26 26 26 27 28
15 23 20 15 16 16 17 19 22 25 23 23 24 25 27 28 28 26 25 27 30 32 32 30 31 33 32
16 17 18 20 22 24 26 27 28 27 27 26 24 23 24 25 26 29 31 34 35 33 29 28 28 29 31
22 22 23 24 24 23 24 24 24 25 27 30 34 38 39 35 30 26 25 25 25 24 22 23 23 22 22
34 34 30 28 28 30 32 35 39 44 45 42 33 26 21 22 25 26 28 28 28 28 28 28 28 28 27
35 36 36 36 37 40 44 47 44 34 28 26 26 27 25 26 27 27 28 30 31 32 32 33 35 35 34
39 41 42 43 47 50 47 33 27 27 29 31 30 30 34 32 29 29 31 32 34 35 38 40 42 45 44
46 47 48 51 54 43 32 28 28 31 33 35 33 34 34 32 30 28 30 32 36 38 40 41 44 47 48
55 55 57 57 44 35 32 33 36 35 35 36 36 36 35 33 34 34 39 37 39 41 42 41 42 43 42
63 62 58 49 39 34 35 38 37 37 37 37 36 35 33 34 37 39 43 46 42 45 43 43 45 43 41
68 64 54 46 39 38 41 40 39 39 38 36 36 34 34 40 42 45 45 47 49 48 47 47 49 45 49
67 60 54 46 42 45 44 43 44 42 39 37 36 34 34 38 47 48 48 49 49 49 50 49 50 52 55
70 63 54 48 46 47 46 47 46 44 43 39 38 40 39 40 40 52 49 51 50 51 53 54 53 57 61

GFSFLT2_prec_cthk_150.txt.gz
RH
81 83 84 81 84 83 80 81 77 75 72 68 63 62 56 55 54 51 48 52 56 52 62 64 61 64 68
57 60 67 79 81 84 87 83 79 76 67 69 66 62 58 53 49 35 30 31 34 49 63 67 62 50 48
63 63 65 67 67 70 72 68 64 61 53 52 51 55 53 45 41 38 39 37 38 32 30 34 35 33 38
67 69 71 72 69 59 51 46 44 45 44 39 37 44 48 48 45 42 39 31 25 24 22 21 22 24 27
32 36 44 46 44 43 38 35 31 26 21 27 34 30 25 24 25 24 25 25 26 27 28 29 30 32 34
16 15 14 15 14 13 14 16 19 22 25 26 26 27 26 26 24 23 22 21 23 24 26 28 30 32 33
27 28 29 30 30 26 24 24 24 24 23 22 22 23 26 29 32 34 36 35 32 30 29 26 23 21 21
27 29 30 33 33 33 32 32 30 30 32 34 39 42 40 35 28 24 23 24 24 24 24 24 24 23 23
26 27 28 30 35 36 37 38 40 42 43 43 39 28 23 24 25 25 26 27 27 27 27 26 27 28 27
24 26 30 32 40 42 45 46 46 45 42 30 25 26 25 26 27 26 26 27 27 26 26 28 28 28 28
32 29 34 38 47 50 52 50 49 42 32 30 31 31 32 29 27 27 28 28 26 27 29 30 31 34 34
39 38 42 49 55 59 56 52 43 35 34 35 34 34 33 30 28 25 25 26 28 29 32 35 36 37 38
46 49 56 59 63 62 57 49 40 39 36 36 35 34 34 32 31 28 28 26 30 34 37 39 40 41 36
56 61 65 69 68 62 55 45 44 41 39 39 36 36 34 33 34 31 33 34 33 38 41 42 43 45 41
65 70 72 71 69 62 52 50 47 42 42 39 38 38 36 36 35 37 38 36 39 40 42 40 44 46 43
74 76 73 73 70 61 55 52 48 44 43 41 42 39 36 32 37 40 41 43 42 44 45 45 43 47 47
77 80 75 74 72 64 58 54 51 47 44 46 45 44 42 39 36 44 46 44 44 45 48 48 46 46 51

GFSFLT2_prec_cthk_153.txt.gz
RH
56 57 62 62 70 75 77 77 75 77 77 74 71 71 67 60 57 54 54 53 49 43 37 39 48 50 62
57 57 58 60 60 58 60 70 73 77 75 69 64 59 57 62 60 55 50 51 41 32 27 26 31 39 53
40 55 61 63 62 64 65 64 59 55 48 43 42 42 41 36 42 46 45 40 39 35 34 36 36 36 33
34 39 44 51 56 55 52 51 50 49 46 42 40 36 41 36 32 35 42 48 47 40 34 32 27 24 24
30 33 39 39 36 35 33 27 16 14 15 18 19 21 22 23 27 27 25 24 24 25 25 24 23 23 23
21 24 23 24 25 27 28 30 30 27 26 27 26 26 25 24 23 22 21 22 25 29 32 34 35 33 31
22 24 26 29 28 29 31 34 35 34 34 33 31 30 30 31 34 38 39 36 32 27 23 23 25 25 23
19 22 25 27 29 28 28 29 36 39 40 40 40 41 41 41 39 34 27 23 23 23 23 23 23 23 23
17 20 26 26 29 28 30 33 39 46 47 46 43 43 41 35 29 26 26 26 26 25 25 23 22 23 21
17 19 27 31 33 35 37 41 47 52 51 48 46 43 35 30 29 27 26 27 25 24 23 23 26 27 26
21 22 27 36 39 42 45 52 55 55 54 48 44 37 34 31 28 26 25 25 26 25 26 27 29 32 33
27 27 32 40 45 50 56 62 62 58 53 49 45 40 36 31 29 27 26 28 28 28 28 28 29 31 32
31 36 40 45 53 60 66 67 62 57 52 50 45 42 38 35 33 29 30 27 30 31 31 30 30 31 32
44 45 47 55 63 71 72 68 62 57 55 52 48 45 40 38 36 34 35 34 32 33 32 31 33 36 38
55 54 57 65 73 75 74 71 64 59 58 54 49 45 42 40 37 37 36 35 36 36 34 33 35 40 41
64 64 69 73 80 78 75 74 69 64 60 53 49 47 44 41 38 36 37 38 36 35 38 39 38 42 43
77 74 77 80 85 80 78 77 73 68 60 53 53 51 47 45 38 35 40 40 38 38 42 43 43 42 42

GFSFLT2_prec_cthk_156.txt.gz
RH
52 52 56 56 54 53 55 58 63 66 65 65 66 64 64 63 62 59 56 54 51 49 47 45 40 34 29
43 35 37 52 56 55 54 53 50 48 52 54 58 51 45 44 41 38 44 49 47 43 38 45 37 31 27
35 37 41 48 51 53 52 49 46 47 46 40 36 35 34 32 33 35 32 34 36 40 43 41 40 37 37
23 34 40 47 50 48 47 46 43 37 31 26 25 25 28 30 28 29 29 33 32 32 34 39 41 39 33
18 23 27 29 32 33 32 27 24 25 26 27 26 23 23 23 23 23 23 23 22 23 23 22 23 23 22
15 16 17 18 21 23 26 30 31 30 30 31 34 34 34 32 28 26 25 23 24 25 27 30 33 34 34
16 16 16 16 19 21 25 27 29 30 30 30 32 37 39 38 38 38 39 39 38 37 34 30 26 22 20
16 17 16 16 16 18 21 27 29 31 33 38 38 40 43 43 42 40 40 37 32 28 25 22 21 21 20
17 17 17 17 17 17 20 25 33 36 40 44 46 45 47 46 44 42 37 32 28 25 23 22 21 22 22
18 18 18 19 19 21 25 25 33 43 47 51 51 52 51 49 44 40 36 32 28 25 24 25 27 27 25
20 21 21 21 23 28 30 32 39 49 55 57 57 55 54 50 46 41 36 32 29 28 30 31 30 31 29
25 25 25 26 31 38 36 41 48 57 62 61 56 54 51 49 46 42 36 33 33 33 34 33 33 32 31
31 30 31 35 45 46 46 50 58 66 65 60 58 58 54 52 47 41 38 36 37 36 34 32 31 31 29
47 46 46 51 53 56 58 61 71 71 67 63 61 58 56 52 47 41 40 41 39 38 33 31 30 31 31
59 63 64 66 64 64 64 72 76 73 69 67 64 60 58 52 46 42 41 42 42 37 33 30 30 32 33
75 73 74 72 70 69 71 80 80 75 73 71 67 63 57 51 48 47 45 43 39 35 35 33 30 35 34
87 83 80 77 77 77 78 88 82 79 78 73 70 65 61 59 55 49 47 42 38 35 37 38 35 34 36

GFSFLT2_prec_cthk_159.txt.gz
RH
45 43 42 39 43 58 54 50 51 51 50 54 57 56 55 53 52 49 46 48 47 46 46 46 44 44 42
41 35 29 33 41 48 54 56 54 49 45 45 41 38 36 38 36 36 35 32 30 32 35 38 39 36 42
40 33 28 34 40 43 50 53 50 47 47 44 38 32 30 28 30 27 26 27 29 34 32 30 34 39 43
23 18 27 33 36 41 42 39 38 38 35 29 23 23 23 23 21 19 19 21 22 21 21 23 29 29 31
16 16 19 24 25 23 21 19 20 22 25 28 31 30 29 29 30 31 31 29 26 24 23 22 22 21 21
15 16 16 16 16 16 15 15 18 20 24 26 28 30 32 31 31 31 34 35 34 33 32 30 30 30 30
15 16 16 16 16 16 16 17 17 18 20 23 27 31 33 37 38 37 38 40 39 37 36 36 35 33 29
15 16 16 17 17 17 17 17 17 18 21 25 29 34 37 40 43 44 43 43 41 39 37 35 31 26 23
15 16 16 16 17 17 17 17 17 19 23 28 33 35 41 46 48 47 47 45 43 39 35 32 28 25 23
18 18 18 18 18 18 19 19 20 22 26 34 39 40 45 50 51 49 46 46 45 40 35 32 30 29 28
26 24 23 22 22 22 24 30 25 27 31 39 46 49 51 52 50 47 46 45 42 40 37 36 35 33 31
41 38 35 31 31 29 29 32 32 34 44 54 56 60 58 56 52 50 48 47 44 42 40 38 37 35 34
56 50 45 46 45 38 40 42 41 47 61 65 70 67 64 58 56 53 49 46 43 45 40 38 36 36 34
65 62 60 58 52 50 54 53 54 66 70 72 75 72 66 62 60 54 50 49 46 42 40 38 37 38 37
76 74 71 69 65 63 65 67 71 72 74 78 79 75 70 66 62 55 52 49 44 42 42 40 38 38 34
85 84 78 76 76 76 76 77 75 76 80 83 81 79 74 70 63 59 55 52 49 48 45 40 36 35 33
90 90 95 93 89 90 86 85 75 85 90 86 83 83 77 72 67 61 58 55 52 47 43 40 32 31 33

GFSFLT2_prec_cthk_162.txt.gz
RH
40 42 39 31 25 30 38 45 49 51 49 47 44 44 47 49 48 46 44 42 42 44 44 44 44 44 42
34 38 36 30 25 28 34 38 46 51 48 45 43 41 38 33 30 29 30 29 27 26 25 26 27 31 32
28 32 32 22 26 29 34 37 40 41 43 44 43 41 37 33 30 29 26 24 25 26 28 28 28 28 28
21 19 15 16 24 31 33 35 30 27 24 22 22 22 23 26 28 28 27 28 29 30 28 26 24 23 21
13 13 13 15 19 23 23 21 17 15 15 15 17 20 24 27 28 30 31 31 29 29 31 32 31 29 27
12 12 12 13 14 15 16 16 16 17 17 17 17 17 19 23 26 30 32 34 37 38 35 35 35 34 33
13 13 13 13 14 14 15 16 17 17 18 19 17 18 19 22 28 31 34 37 41 41 40 38 37 36 35
17 16 15 15 15 15 15 16 16 17 17 18 20 21 23 24 26 32 37 40 43 43 41 40 39 37 35
31 23 20 19 18 17 17 17 17 17 17 19 22 24 26 28 30 36 42 43 45 45 41 38 38 37 35
53 47 40 32 26 23 21 20 20 20 21 23 26 29 33 35 36 41 45 46 48 46 42 39 36 35 37
68 62 55 49 44 38 34 32 29 28 28 30 32 36 37 47 45 48 53 53 51 46 43 41 40 39 39
77 73 70 64 57 52 48 44 41 41 40 39 45 41 44 55 59 59 58 57 52 47 44 42 39 39 40
84 81 73 70 68 64 60 58 55 54 53 52 51 58 64 71 69 66 65 61 53 49 45 42 40 38 38
87 85 81 77 73 68 66 65 65 64 62 60 65 70 73 75 77 72 68 63 55 50 46 44 40 38 39
93 95 91 82 79 77 75 73 73 69 67 67 75 79 77 87 81 75 71 63 58 53 50 47 43 41 44
98 98 97 95 90 86 81 87 84 77 75 82 84 81 88 89 84 78 71 65 59 54 51 49 46 44 46
97 98 98 97 96 97 94 89 88 89 93 90 90 97 93 89 87 80 72 66 59 56 52 50 47 43 41

GFSFLT2_prec_cthk_165.txt.gz
RH
30 31 36 38 36 28 26 31 34 35 42 44 43 44 41 38 39 38 40 41 40 41 41 42 42 43 43
25 24 28 33 32 22 25 30 33 38 41 38 38 38 38 40 40 37 34 31 30 29 27 26 25 24 26
20 19 20 21 18 15 23 28 32 34 33 31 32 32 30 29 30 32 30 29 27 26 25 23 23 23 26
13 13 13 12 12 13 18 25 29 29 24 21 19 17 17 17 18 19 23 28 30 31 30 28 27 27 28
13 12 11 11 12 12 14 16 17 16 14 14 15 16 18 19 19 20 20 21 24 28 30 32 33 33 31
20 17 15 14 13 12 13 13 14 13 13 15 16 17 18 18 19 19 19 20 22 26 32 33 35 37 37
44 36 28 22 19 17 15 15 15 15 15 15 16 16 16 18 19 21 23 23 26 27 29 35 37 36 38
47 46 44 46 40 34 30 23 19 18 17 17 16 16 17 19 22 24 26 27 28 29 31 35 38 38 38
50 52 51 48 44 41 40 40 38 33 27 22 20 19 20 23 26 28 30 31 32 33 34 38 41 41 40
52 56 58 57 54 49 46 46 45 43 39 35 32 30 29 31 33 35 37 36 36 39 48 47 46 47 43
54 57 63 60 61 57 53 58 55 52 48 45 41 39 40 43 45 46 48 44 43 46 52 51 51 51 45
55 56 60 71 68 64 64 69 63 61 57 55 53 52 52 53 54 56 56 56 57 62 61 58 58 53 46
58 63 65 66 71 74 77 71 69 66 63 62 63 62 61 63 66 67 70 73 72 66 67 63 59 52 44
65 69 73 78 83 79 83 77 77 71 71 70 68 68 66 69 70 74 80 81 78 75 71 65 58 48 45
77 79 83 87 96 95 91 89 83 78 76 77 78 74 73 73 77 88 94 87 83 78 72 64 54 46 46
88 89 94 98 97 93 96 91 88 90 91 84 84 81 80 88 96 97 95 88 83 78 71 62 54 45 46
96 96 98 98 98 97 97 97 97 97 96 96 90 93 96 96 97 97 97 87 83 77 69 59 52 48 49

GFSFLT2_prec_cthk_171.txt.gz
RH
13 14 13 14 20 20 17 18 16 14 21 25 28 29 30 31 32 32 33 37 44 49 49 52 50 48 47
16 17 19 13 13 12 12 11 11 12 19 23 26 25 26 28 30 30 30 29 28 29 31 33 33 35 35
29 26 23 20 17 14 13 12 11 11 14 18 21 20 19 19 22 25 30 30 26 26 25 25 27 29 30
41 40 40 37 36 33 29 26 22 18 15 14 14 14 13 12 12 13 14 16 18 20 21 21 20 20 22
38 36 35 33 31 30 30 28 27 25 24 24 22 20 18 17 17 17 16 17 17 18 19 20 21 20 21
39 38 38 36 36 34 33 32 30 30 28 27 25 26 26 25 22 21 21 21 20 18 18 18 19 19 20
43 45 44 43 41 39 36 34 33 32 30 28 28 26 26 27 28 28 27 25 26 25 23 22 22 22 23
51 49 47 45 44 42 40 38 37 35 35 32 32 32 29 27 28 31 30 30 33 32 32 31 29 27 27
46 48 49 49 48 45 44 42 40 38 39 36 37 37 35 32 32 33 34 33 33 36 41 41 39 39 36
46 48 47 46 46 46 47 45 43 40 39 41 41 40 38 39 39 40 40 39 39 40 42 47 49 47 46
45 43 42 42 42 44 45 43 40 38 43 46 45 49 43 39 46 48 48 48 52 53 56 56 58 58 54
46 44 45 45 45 45 45 45 44 47 51 54 49 53 53 46 47 51 53 56 58 59 61 64 67 69 66
50 50 51 53 54 55 54 55 56 55 57 62 66 70 66 61 62 60 61 62 66 67 68 70 74 76 79
54 53 55 55 60 64 66 68 68 70 71 74 78 77 78 76 70 71 68 67 69 72 73 78 89 90 90
56 59 63 66 70 72 75 77 78 82 84 87 88 87 93 88 86 80 76 78 79 82 87 88 89 92 94
54 61 67 72 76 78 78 80 85 89 92 93 96 95 93 92 92 88 85 87 88 90 89 90 91 94 93
50 59 66 71 75 80 84 87 88 90 92 93 96 97 96 94 94 95 96 95 94 94 94 93 93 96 88

GFSFLT2_prec_cthk_174.txt.gz
RH
22 21 17 14 13 12 12 11 11 10 11 15 19 23 22 23 26 27 29 30 34 39 45 47 51 58 59
35 32 29 26 22 19 17 15 13 12 11 13 16 18 20 18 18 22 25 26 27 29 31 34 34 37 41
48 45 42 40 38 35 33 32 30 28 25 23 22 21 20 17 15 15 17 20 21 23 24 26 28 28 29
43 43 42 39 37 35 33 30 29 27 25 23 22 21 20 18 17 18 17 16 16 16 17 18 19 20 20
42 41 41 41 38 36 34 33 31 32 32 30 26 24 23 22 22 21 21 22 22 21 20 19 20 19 19
44 43 44 43 42 40 40 39 38 38 35 33 32 28 26 24 22 21 22 23 22 21 22 23 21 21 21
44 47 49 51 48 47 46 45 42 39 37 36 34 33 30 28 26 25 24 24 24 24 23 23 25 26 25
52 52 53 53 51 51 49 47 45 44 41 38 37 35 33 32 30 29 28 28 27 28 27 27 27 30 31
50 50 51 52 52 51 51 49 47 46 43 38 36 34 35 35 34 32 30 30 30 31 31 34 37 36 36
50 52 50 50 50 49 50 48 48 45 41 38 36 37 37 39 38 38 34 33 33 34 34 35 40 43 46
52 51 51 52 53 52 51 50 47 44 41 39 36 37 40 41 43 42 39 36 37 39 41 44 47 47 50
61 60 58 56 56 54 53 53 51 49 47 45 42 43 46 46 47 52 48 44 42 45 47 49 50 52 58
60 59 59 59 58 58 57 58 59 59 56 55 52 51 53 60 64 65 63 56 53 58 56 58 58 63 67
58 59 60 59 58 62 64 63 61 63 65 65 65 64 65 71 69 70 72 69 63 62 65 67 63 72 80
60 58 56 57 61 64 66 66 64 68 72 74 75 75 77 81 83 83 81 84 82 76 78 80 85 87 87
55 52 49 52 58 63 64 65 70 73 75 79 80 80 83 87 89 88 86 89 86 85 85 86 88 90 87
56 55 56 57 56 56 61 65 68 74 77 82 83 83 85 88 91 92 93 94 93 93 94 92 89 89 90